SWR455 LSGG-LGIR

Flight info

Callsign SWR455
Flight time N/A
Altitude 33000
Route MEDAM1A/22 MEDAM DCT NITAM DCT MOGBO DCT KODOK DCT TOP DCT LURUT DCT IBENI DCT KOFER/N0449F350 DCT PINDO DCT PIKOS DCT KEA UL607 GIVIS T514 XAVIS
Aircraft A321/M-SDE3FGHIRWY/LB1

Departure

Time N/A
Airport Geneva International Airport (LSGG)

Arrival

Time 2026-05-04 18:15
Airport Heraklion International Nikos Kazantzakis Airport (LGIR)
Time Latitude Longitude Altitude Speed Heading
2026-05-04 17:13 40.94220 20.24318 34160 ft 488 kts 127°
2026-05-04 17:14 40.85524 20.37888 34144 ft 487 kts 128°
2026-05-04 17:15 40.78951 20.48092 34155 ft 487 kts 127°
2026-05-04 17:16 40.70166 20.61695 34130 ft 487 kts 127°
2026-05-04 17:17 40.61362 20.75232 34117 ft 488 kts 128°
2026-05-04 17:18 40.52516 20.88805 34129 ft 488 kts 127°
2026-05-04 17:19 40.42971 21.01487 34109 ft 492 kts 136°
2026-05-04 17:20 40.32659 21.13363 34113 ft 492 kts 136°
2026-05-04 17:20 40.24926 21.22247 34114 ft 493 kts 136°
2026-05-04 17:21 40.14578 21.34075 34100 ft 495 kts 136°
2026-05-04 17:22 40.09414 21.39958 34117 ft 496 kts 136°
2026-05-04 17:23 39.99005 21.51784 34121 ft 496 kts 137°
2026-05-04 17:24 39.91281 21.60685 34116 ft 496 kts 135°
2026-05-04 17:25 39.81276 21.72804 34111 ft 496 kts 135°
2026-05-04 17:26 39.71080 21.84928 34136 ft 497 kts 135°
2026-05-04 17:27 39.62405 21.95203 34096 ft 494 kts 134°
2026-05-04 17:28 39.59160 22.00439 35712 ft 397 kts 112°
2026-05-04 17:29 39.57837 22.10016 35743 ft 378 kts 71°
2026-05-04 17:29 39.61770 22.18042 36411 ft 320 kts 27°
2026-05-04 17:30 39.68051 22.19743 35515 ft 329 kts 344°
2026-05-04 17:31 39.71867 22.16946 36196 ft 309 kts 314°
2026-05-04 17:31 39.74101 22.08913 35655 ft 347 kts 271°
2026-05-04 17:32 39.72971 22.03869 35985 ft 354 kts 246°
2026-05-04 17:33 39.67196 21.97523 35790 ft 391 kts 204°
2026-05-04 17:33 39.65178 21.96822 35756 ft 398 kts 192°
2026-05-04 17:34 39.56901 21.98644 34443 ft 433 kts 149°
2026-05-04 17:34 39.54881 22.00317 34826 ft 424 kts 140°
2026-05-04 17:35 39.52014 22.04631 34303 ft 433 kts 117°
2026-05-04 17:35 39.48639 22.11296 34105 ft 452 kts 130°
2026-05-04 17:36 39.44386 22.16456 34102 ft 463 kts 136°
2026-05-04 17:36 39.42458 22.18709 34118 ft 467 kts 136°
2026-05-04 17:37 39.39669 22.21959 34116 ft 473 kts 136°
2026-05-04 17:37 39.35535 22.26779 34113 ft 481 kts 136°
2026-05-04 17:38 39.30915 22.32179 34119 ft 491 kts 136°
2026-05-04 17:38 39.25810 22.38144 34118 ft 499 kts 136°
2026-05-04 17:39 39.18070 22.47145 34145 ft 500 kts 136°
2026-05-04 17:39 39.12933 22.53103 34119 ft 499 kts 136°
2026-05-04 17:40 39.07896 22.58930 34106 ft 499 kts 136°
2026-05-04 17:40 39.02758 22.64867 34101 ft 500 kts 136°
2026-05-04 17:41 38.97531 22.70903 34108 ft 501 kts 136°
2026-05-04 17:41 38.92398 22.76814 34116 ft 502 kts 136°
2026-05-04 17:42 38.89817 22.79779 34151 ft 502 kts 136°
2026-05-04 17:42 38.89456 22.80191 34144 ft 501 kts 141°
2026-05-04 17:43 38.87525 22.82224 33820 ft 492 kts 140°
2026-05-04 17:43 38.84889 22.84971 33947 ft 488 kts 137°
2026-05-04 17:43 38.82356 22.87861 34140 ft 489 kts 135°
2026-05-04 17:43 38.81398 22.89000 34140 ft 491 kts 135°
2026-05-04 17:44 38.80666 22.89881 34136 ft 492 kts 135°
2026-05-04 17:44 38.80328 22.90290 34139 ft 491 kts 133°
2026-05-04 17:45 38.79317 22.91545 34375 ft 478 kts 134°
2026-05-04 17:45 38.76935 22.94500 34496 ft 478 kts 134°
2026-05-04 17:45 38.74765 22.97118 34113 ft 487 kts 135°
2026-05-04 17:45 38.72292 22.99997 34134 ft 492 kts 136°
2026-05-04 17:46 38.67088 23.05855 34135 ft 501 kts 137°
2026-05-04 17:46 38.62601 23.10866 34152 ft 502 kts 137°
2026-05-04 17:47 38.57359 23.16771 34138 ft 501 kts 137°
2026-05-04 17:47 38.52135 23.22702 34132 ft 502 kts 136°
2026-05-04 17:48 38.46918 23.28626 34125 ft 503 kts 136°
2026-05-04 17:48 38.41704 23.34515 34124 ft 503 kts 137°
2026-05-04 17:49 38.36440 23.40439 34129 ft 504 kts 137°
2026-05-04 17:49 38.31188 23.46339 34160 ft 503 kts 137°
2026-05-04 17:50 38.25931 23.52229 34163 ft 502 kts 137°
2026-05-04 17:50 38.20678 23.58095 34160 ft 502 kts 137°
2026-05-04 17:51 38.16775 23.62458 34128 ft 501 kts 137°
2026-05-04 17:51 38.12279 23.67508 34085 ft 495 kts 136°
2026-05-04 17:52 38.07669 23.72745 34099 ft 500 kts 137°
2026-05-04 17:52 38.03204 23.77649 34144 ft 499 kts 138°
2026-05-04 17:53 37.98386 23.82922 34159 ft 496 kts 138°
2026-05-04 17:53 37.94184 23.87560 34140 ft 496 kts 137°
2026-05-04 17:54 37.89441 23.92834 34124 ft 497 kts 137°
2026-05-04 17:54 37.84513 23.98284 34123 ft 498 kts 137°
2026-05-04 17:55 37.79281 24.04030 34130 ft 498 kts 137°
2026-05-04 17:55 37.74051 24.09780 34163 ft 497 kts 137°
2026-05-04 17:56 37.68842 24.15506 34171 ft 494 kts 137°
2026-05-04 17:56 37.63650 24.21204 34131 ft 495 kts 137°
2026-05-04 17:57 37.58431 24.26907 34121 ft 496 kts 137°
2026-05-04 17:57 37.52885 24.32100 34121 ft 498 kts 148°
2026-05-04 17:58 37.47035 24.36686 34120 ft 499 kts 147°
2026-05-04 17:58 37.41143 24.41304 34155 ft 498 kts 147°
2026-05-04 17:59 37.35267 24.45919 34133 ft 498 kts 147°
2026-05-04 18:00 37.26425 24.52848 34125 ft 499 kts 148°
2026-05-04 18:00 37.20519 24.57451 34123 ft 500 kts 148°
2026-05-04 18:01 37.03245 24.70870 34159 ft 506 kts 148°
2026-05-04 18:01 36.79146 24.89515 34106 ft 510 kts 148°
2026-05-04 18:02 36.55570 25.07617 29595 ft 484 kts 147°
2026-05-04 18:02 36.44231 25.16268 26626 ft 470 kts 147°
2026-05-04 18:02 36.33352 25.24560 24334 ft 448 kts 147°
2026-05-04 18:02 36.22906 25.32474 21716 ft 432 kts 147°
2026-05-04 18:03 36.12692 25.40103 19045 ft 416 kts 152°
2026-05-04 18:03 36.02029 25.44595 16491 ft 402 kts 161°
2026-05-04 18:03 35.97464 25.46456 15449 ft 396 kts 161°
2026-05-04 18:03 35.94856 25.47515 14873 ft 393 kts 161°
2026-05-04 18:04 35.92265 25.48560 14303 ft 390 kts 161°
2026-05-04 18:04 35.89695 25.49592 13733 ft 387 kts 161°
2026-05-04 18:04 35.84409 25.49940 12212 ft 388 kts 194°
2026-05-04 18:05 35.81832 25.49207 12046 ft 372 kts 194°
2026-05-04 18:05 35.79361 25.48518 11914 ft 357 kts 194°
2026-05-04 18:05 35.76986 25.47869 11787 ft 342 kts 194°
2026-05-04 18:05 35.74737 25.47254 11658 ft 328 kts 194°
2026-05-04 18:06 35.70414 25.46066 11052 ft 311 kts 195°
2026-05-04 18:06 35.68315 25.45488 10296 ft 308 kts 195°
2026-05-04 18:06 35.66229 25.44915 9487 ft 306 kts 195°
2026-05-04 18:07 35.64152 25.44345 8666 ft 304 kts 196°
2026-05-04 18:07 35.62095 25.43780 7870 ft 301 kts 196°
2026-05-04 18:07 35.60052 25.43222 7106 ft 299 kts 197°
2026-05-04 18:07 35.58026 25.42665 6351 ft 297 kts 197°
2026-05-04 18:08 35.56027 25.42118 5612 ft 292 kts 196°
2026-05-04 18:08 35.54060 25.41581 4910 ft 287 kts 195°
2026-05-04 18:08 35.52160 25.41061 4242 ft 281 kts 195°
2026-05-04 18:08 35.50264 25.40538 3923 ft 276 kts 196°
2026-05-04 18:09 35.46787 25.39585 3670 ft 253 kts 197°
2026-05-04 18:09 35.41660 25.38196 3259 ft 216 kts 197°
2026-05-04 18:10 35.39689 25.37674 2637 ft 208 kts 196°
2026-05-04 18:10 35.38305 25.37305 2391 ft 199 kts 196°
2026-05-04 18:10 35.36969 25.36950 2303 ft 196 kts 197°
2026-05-04 18:10 35.35638 25.36598 2308 ft 196 kts 196°
2026-05-04 18:11 35.34322 25.36210 2303 ft 193 kts 206°
2026-05-04 18:11 35.33380 25.35342 2307 ft 183 kts 238°
2026-05-04 18:11 35.32914 25.33935 2308 ft 178 kts 266°
2026-05-04 18:11 35.32970 25.32455 2319 ft 175 kts 277°
2026-05-04 18:12 35.33074 25.30954 2226 ft 173 kts 277°
2026-05-04 18:12 35.33175 25.29510 1984 ft 175 kts 276°
2026-05-04 18:12 35.33278 25.28020 1718 ft 171 kts 276°
2026-05-04 18:12 35.33378 25.26605 1473 ft 159 kts 276°
2026-05-04 18:13 35.33468 25.25322 1218 ft 145 kts 278°
2026-05-04 18:13 35.33549 25.24100 926 ft 142 kts 278°
2026-05-04 18:13 35.33697 25.21880 550 ft 127 kts 277°
2026-05-04 18:14 35.33767 25.20814 452 ft 123 kts 278°
2026-05-04 18:14 35.33838 25.19758 214 ft 130 kts 279°
2026-05-04 18:14 35.33929 25.18652 111 ft 125 kts 277°
2026-05-04 18:15 35.34009 25.17433 91 ft 21 kts 279°
2026-05-04 18:15 35.34008 25.17088 91 ft 15 kts 256°
2026-05-04 18:15 35.33952 25.17057 92 ft 6 kts 132°
2026-05-04 18:16 35.33938 25.17128 90 ft 16 kts 97°
2026-05-04 18:16 35.33926 25.17312 93 ft 22 kts 96°
2026-05-04 18:16 35.33910 25.17493 92 ft 22 kts 98°
2026-05-04 18:17 35.33880 25.17748 95 ft 1 kts 198°
2026-05-04 18:17 35.33826 25.17735 92 ft 14 kts 199°
2026-05-04 18:17 35.33813 25.17666 94 ft 0 kts 273°